Regional Weather Roundup
Issued by NWS

Home | Current Version | Previous Version | Text Only | Print | Product List | Glossary On
Versions: 1 2 3 4 5 6 7 8 9 10 11 12 13 14 15 16 17 18 19 20 21 22 23 24 25 26 27 28 29 30 31 32 33 34 35 36 37 38 39 40 41 42 43 44 45 46 47 48 49 50
000
ASUS43 KMPX 252310
RWRMN
WEATHER ROUNDUP FOR MINNESOTA
NATIONAL WEATHER SERVICE TWIN CITIES/CHANHASSEN MN
500 PM CST THU DEC 25 2014


NOTE: "FAIR" INDICATES FEW OR NO CLOUDS BELOW 12,000 FEET WITH NO
SIGNIFICANT WEATHER AND/OR OBSTRUCTIONS TO VISIBILITY. N/A MEANS
CURRENT SKY AND/OR WEATHER CONDITIONS ARE NOT AVAILABLE.

MNZ060>063-068>070-260000-
   Twin Cities Metro

CITY           SKY/WX    TMP DP  RH WIND       PRES   REMARKS
TWIN CITIES    CLOUDY    34  29  82 SE6       29.80R WCI  29
ST PAUL        CLOUDY    35  29  78 E6        29.81R WCI  30
CRYSTAL        LGT SNOW  34  31  88 CALM      29.79R FOG
BLAINE         LGT SNOW  34  34 100 CALM      29.79R
LAKEVILLE        N/A     30  30 100 E3        29.78R
EDEN PRAIRIE   CLOUDY    34  30  85 NE5       29.78R WCI  30
SOUTH ST PAUL  CLOUDY    35  30  82 CALM      29.80R
LAKE ELMO      CLOUDY    34  32  93 CALM      29.81R
$$
MNZ001>005-007-008-013>017-022>024-027-028-260000-
   Northwest Minnesota

CITY           SKY/WX    TMP DP  RH WIND       PRES   REMARKS
BEMIDJI        CLOUDY    27  21  78 W9        29.81R WCI  18
HALLOCK        CLOUDY    27  25  93 NW9       29.88R WCI  17
ROSEAU         CLOUDY    28  23  80 NW6       29.84R WCI  22
WARROAD        CLOUDY    27  23  86 W7        29.83R WCI  19
THIEF RVR FALL CLOUDY    27  21  80 N9        29.86R WCI  17
CROOKSTON      CLOUDY    27  25  93 N10       29.88R WCI  17
FOSSTON        CLOUDY    23  21  93 NW7       29.85R WCI  15
DETROIT LAKES  CLOUDY    28  28 100 N8        29.83R WCI  20
MOORHEAD       CLOUDY    30  28  93 N10       29.87R WCI  21
PARK RAPIDS    CLOUDY    30  23  75 NW10      29.79R WCI  21
MAHNOMEN       CLOUDY    26  22  84 NW13      29.84R WCI  15
$$
MNZ006-009>011-018-025>026-260000-
   North Central Minnesota

CITY           SKY/WX    TMP DP  RH WIND       PRES   REMARKS
BAUDETTE       CLOUDY    28  22  78 NW9       29.80R WCI  19
FLAG ISLAND    CLOUDY    27  25  93 W14       29.81R WCI  15
INTL FALLS     CLOUDY    28  23  81 W8        29.79R WCI  20
WASKISH        CLOUDY    27  23  86 CALM      29.82R
BIG FORK       CLOUDY    30  23  74 NW3       29.79R
LONGVILLE      CLOUDY    30  25  80 CALM      29.79R
GRAND RAPIDS   CLOUDY    30  23  74 NW5       29.79R WCI  25
CRANE LAKE     CLOUDY    28  25  86 CALM      29.80R
ORR            CLOUDY    28  23  80 CALM      29.75R
COOK           CLOUDY    28  23  80 CALM      29.77S
WALKER         CLOUDY    28  22  75 NW3       29.80R
$$
MNZ012-019>021-037-260000-
   Northeast Minnesota

CITY           SKY/WX    TMP DP  RH WIND       PRES   REMARKS
DULUTH         CLOUDY    32  26  78 W5        29.78R WCI  27
ELY            CLOUDY    28  23  80 W3        29.76R
HIBBING        CLOUDY    31  23  72 NW7       29.78R WCI  24
EVELETH        MOCLDY    32  28  86 W3        29.79R
DULUTH HARBOR  CLOUDY    34  28  80 CALM      29.82R
TWO HARBORS    CLOUDY    36  28  75 CALM      29.78R
SILVER BAY     CLOUDY    34  28  80 CALM      29.77R
GRAND MARAIS     N/A     33  28  81 W3        29.79R
G MARAIS ARPRT CLOUDY    27  23  86 CALM      29.74R
$$
MNZ029>031-032-039>041-046>048-054>057-064-260000-
   West Central Minnesota

CITY           SKY/WX    TMP DP  RH WIND       PRES   REMARKS
FERGUS FALLS   CLOUDY    28  27  93 N12       29.86R WCI  18
WHEATON        CLOUDY    27  23  86 NW8       29.86R WCI  18
MORRIS         MOCLDY    30  27  86 N10       29.81R WCI  21
ALEXANDRIA     CLOUDY    29  25  85 N5        29.80R WCI  24
ELBOW LAKE     CLOUDY    28  26  89 N10       29.81S WCI  19
WADENA         CLOUDY    28  25  86 NW8       29.80R WCI  20
GLENWOOD       CLOUDY    28  27  93 N9        29.81R WCI  20
APPLETON       CLOUDY    30  27  86 N15       29.81R WCI  19
BENSON         CLOUDY    30  28  93 N9        29.81R WCI  22
ORTONVILLE     CLOUDY    28  25  86 N15       29.81S WCI  17
MADISON        FLURRIES  34  30  86 N12       29.81R WCI  25
WILLMAR        MOCLDY    34  30  86 N6        29.80R FOG     WCI  29
$$
MNZ033>034-036-042>043-049>051-058-059-260000-
   Central Minnesota

CITY           SKY/WX    TMP DP  RH WIND       PRES   REMARKS
ST CLOUD       CLOUDY    36  28  73 CALM      29.79R
SAUK CENTRE    CLOUDY    31  28  88 N9        29.80R WCI  23
PAYNESVILLE    CLOUDY    30  28  93 CALM      29.79R
AITKIN         CLOUDY    34  27  75 N6        29.78R WCI  29
PINE RIVER     CLOUDY    30  25  80 CALM      29.83S
BRAINERD       CLOUDY    30  24  78 N7        29.80R WCI  23
STAPLES        CLOUDY    28  25  86 N6        29.80R WCI  22
LONG PRAIRIE   CLOUDY    30  27  86 N7        29.80R WCI  23
LITTLE FALLS   CLOUDY    32  28  86 CALM      29.80R
LITCHFIELD     MIX PCPN  32  32 100 CALM      29.79R
BUFFALO        LGT SNOW  32  30  94 CALM      29.80R
MAPLE LAKE     MIX PCPN  33  32  97 CALM      29.80R
$$
MNZ037-044-045-052-053-260000-
   East Central Minnesota

CITY           SKY/WX    TMP DP  RH WIND       PRES   REMARKS
PRINCETON      CLOUDY    34  30  86 CALM      29.80R
MORA           CLOUDY    32  27  80 CALM      29.82R
CAMBRIDGE      LGT SNOW  34  27  75 CALM      29.78R
RUSH CITY      CLOUDY    32  31  94 CALM      29.81R
MOOSE LAKE     CLOUDY    32  28  86 CALM      29.78R
HINCKLEY       CLOUDY    32  30  93 CALM      29.80R
CLOQUET        CLOUDY    32  27  80 CALM      29.78S
MCGREGOR       CLOUDY    32  28  86 NW7       29.80R WCI  26
$$
MNZ071>073-080-081-089-090-097-098-260000-
   Southwest Minnesota

CITY           SKY/WX    TMP DP  RH WIND       PRES   REMARKS
MONTEVIDEO     FLURRIES  30  30 100 NE12      29.80R WCI  21
GRANITE FALLS  LGT SNOW  31  29  94 NW9       29.80R WCI  23
CANBY          CLOUDY    29  28  94 N10G18    29.79S WCI  20
MARSHALL       CLOUDY    30  27  86 N16       29.77R WCI  19
REDWOOD FALLS  CLOUDY    33  30  88 N6        29.78R WCI  28
OLIVIA         CLOUDY    30  30 100 N5        29.77R FOG     WCI  25
PIPESTONE      CLOUDY    30  28  93 NE16G24   29.70R WCI  19
WINDOM         CLOUDY    32  30  93 NE8       29.75R WCI  25
WORTHINGTON    CLOUDY    30 -17  12 NE16      29.72R WCI  19
JACKSON        CLOUDY    34  30  86 NE8       29.73R WCI  27
TRACY          CLOUDY    32  31  98 NE13      29.75R FOG     WCI  22
SLAYTON        CLOUDY    30  30  99 NE13G18   29.73R FOG     WCI  20
$$
MNZ065>067-074>077-082>085-091>093-260000-
   South Central Minnesota

CITY           SKY/WX    TMP DP  RH WIND       PRES   REMARKS
MANKATO        MOCLDY    36  28  75 CALM      29.77R
NEW ULM        CLOUDY    32  30  93 NE5       29.77R WCI  27
ST JAMES       CLOUDY    34  30  86 N6        29.77R WCI  29
FAIRMONT       CLOUDY    34  28  80 NE5       29.74R WCI  30
GLENCOE        CLOUDY    33  32  97 CALM      29.78R FOG
FARIBAULT      CLOUDY    36  30  80 E3        29.78R
OWATONNA       CLOUDY    34  28  80 CALM      29.77R
WASECA         CLOUDY    34  28  80 E3        29.78R
ALBERT LEA     CLOUDY    34  32  93 E3        29.75R
$$
MNZ078>079-086>088-094>096-260000-
   Southeast Minnesota

CITY           SKY/WX    TMP DP  RH WIND       PRES   REMARKS
ROCHESTER      MOCLDY    32  28  85 E7        29.77S WCI  26
RED WING       CLOUDY    34  28  80 E3        29.79S
STANTON        CLOUDY    35  30  82 CALM      29.78R
DODGE CENTER   CLOUDY    32  30  93 SE6       29.76S WCI  26
WINONA         PTCLDY    36  30  80 CALM      29.82R
AUSTIN         CLOUDY    34  30  86 CALM      29.76R
PRESTON        PTCLDY    33  30  87 SE3       29.78R
$$
ABBREVIATIONS USED IN REMARKS
   TC - TEMPERATURES IN CELSIUS
  WCI - WIND CHILL INDEX
   HX - HEAT INDEX
  VSB - VISIBILITY
$$


USA.gov is the U.S. government's official web portal to all federal, state and local government web resources and services.